SKY MEXICO-1

Last updated on Tue Sep 22 2026 00:03:13 GMT+0000 (Coordinated Universal Time)

1 40664U 15026B 26264.54479760 .00000000 00000+0 00000+0 0 9994 2 40664 0.0207 178.3900 0002164 5.1006 294.2651 1.00267897 41424
UTC large
Height (km)
Speed (km/s)
/
Latitude / Longitude
Inclination (degrees)
Orbital Period (minutes)
Azimuth
Elevation
Range (km)
Doppler Factor

Next 0 passes for location: London (51.5072 / 0.1276)

No passes found over London.
SKY MEXICO-1